| time (UTC) | temp F | wind direction | speed MPH | gust MPH | rain 1hr in | rain 24hr in | rain mn in | humidity % | barometer mb |
| 20260509170012 | 71 | 303 | 0.0 | 0.0 | 0.00 | 0.00 | 0.00 | 57 | 1009.8 |
| 20260509164509 | 70 | 190 | 0.0 | 0.0 | 0.00 | 0.00 | 0.00 | 58 | 1009.9 |
| 20260509163025 | 69 | 205 | 0.0 | 0.0 | 0.00 | 0.00 | 0.00 | 60 | 1010.1 |
| 20260509161523 | 70 | 219 | 0.0 | 0.0 | 0.00 | 0.00 | 0.00 | 59 | 1010.2 |
| 20260509160021 | 70 | 165 | 0.0 | 5.0 | 0.00 | 0.00 | 0.00 | 58 | 1010.2 |
| 20260509154516 | 70 | 201 | 0.0 | 0.0 | 0.00 | 0.00 | 0.00 | 58 | 1010.2 |
| 20260509153009 | 69 | 189 | 0.0 | 0.0 | 0.00 | 0.00 | 0.00 | 60 | 1010.4 |
| 20260509151511 | 69 | 213 | 0.0 | 0.0 | 0.00 | 0.00 | 0.00 | 58 | 1010.5 |
| 20260509150027 | 68 | 174 | 0.0 | 0.0 | 0.00 | 0.00 | 0.00 | 62 | 1010.5 |
| 20260509144523 | 66 | 213 | 0.0 | 0.0 | 0.00 | 0.00 | 0.00 | 61 | 1010.8 |
| 20260509143039 | 65 | 205 | 0.0 | 0.0 | 0.00 | 0.00 | 0.00 | 63 | 1011.0 |
| 20260509141513 | 64 | 209 | 0.0 | 0.0 | 0.00 | 0.00 | 0.00 | 64 | 1011.2 |
| 20260509140028 | 63 | 211 | 0.0 | 0.0 | 0.00 | 0.00 | 0.00 | 65 | 1011.3 |
| 20260509134522 | 62 | 232 | 0.0 | 0.0 | 0.00 | 0.00 | 0.00 | 66 | 1011.2 |
| 20260509133010 | 60 | 186 | 0.0 | 2.0 | 0.00 | 0.00 | 0.00 | 67 | 1011.2 |
| 20260509131512 | 60 | 217 | 0.0 | 0.0 | 0.00 | 0.00 | 0.00 | 67 | 1011.2 |
| 20260509130055 | 59 | 173 | 0.0 | 1.0 | 0.00 | 0.00 | 0.00 | 67 | 1011.3 |
| 20260509124545 | 59 | 211 | 0.0 | 4.0 | 0.00 | 0.00 | 0.00 | 66 | 1011.4 |
| 20260509123040 | 59 | 215 | 0.0 | 4.0 | 0.00 | 0.00 | 0.00 | 65 | 1011.4 |
| 20260509121517 | 59 | 227 | 0.0 | 0.0 | 0.00 | 0.00 | 0.00 | 64 | 1011.4 |
| 20260509120011 | 59 | 196 | 0.0 | 4.0 | 0.00 | 0.00 | 0.00 | 64 | 1011.5 |
| 20260509114510 | 58 | 213 | 0.0 | 1.0 | 0.00 | 0.00 | 0.00 | 63 | 1011.3 |
| 20260509113047 | 58 | 198 | 0.0 | 0.0 | 0.00 | 0.00 | 0.00 | 63 | 1011.3 |
| 20260509111546 | 57 | 192 | 0.0 | 0.0 | 0.00 | 0.00 | 0.00 | 63 | 1011.2 |
| 20260509110023 | 57 | 193 | 0.0 | 0.0 | 0.00 | 0.00 | 0.00 | 62 | 1011.1 |
| 20260509104525 | 57 | 232 | 0.0 | 0.0 | 0.00 | 0.00 | 0.00 | 61 | 1011.1 |
| 20260509103022 | 57 | 217 | 0.0 | 0.0 | 0.00 | 0.00 | 0.00 | 61 | 1011.0 |
| 20260509101521 | 57 | 232 | 0.0 | 0.0 | 0.00 | 0.00 | 0.00 | 61 | 1010.9 |
| 20260509100018 | 57 | 271 | 0.0 | 0.0 | 0.00 | 0.00 | 0.00 | 61 | 1010.7 |
| 20260509094509 | 57 | 186 | 0.0 | 0.0 | 0.00 | 0.00 | 0.00 | 60 | 1010.7 |
| 20260509093025 | 57 | 203 | 0.0 | 0.0 | 0.00 | 0.00 | 0.00 | 60 | 1010.7 |
| 20260509091521 | 57 | 257 | 0.0 | 0.0 | 0.00 | 0.00 | 0.00 | 60 | 1011.1 |
| 20260509090021 | 58 | 234 | 0.0 | 0.0 | 0.00 | 0.00 | 0.00 | 60 | 1011.1 |
| 20260509084518 | 58 | 223 | 0.0 | 0.0 | 0.00 | 0.00 | 0.00 | 60 | 1011.2 |
| 20260509083014 | 58 | 198 | 0.0 | 7.0 | 0.00 | 0.00 | 0.00 | 59 | 1011.2 |
| 20260509081527 | 57 | 210 | 0.0 | 2.0 | 0.00 | 0.00 | 0.00 | 59 | 1011.4 |
| 20260509080024 | 57 | 208 | 0.0 | 2.0 | 0.00 | 0.00 | 0.00 | 60 | 1011.6 |
| 20260509074520 | 57 | 212 | 0.0 | 1.0 | 0.00 | 0.00 | 0.00 | 60 | 1011.7 |
| 20260509073041 | 58 | 197 | 0.0 | 2.0 | 0.00 | 0.00 | 0.00 | 59 | 1011.8 |
| 20260509071517 | 57 | 213 | 0.0 | 4.0 | 0.00 | 0.00 | 0.00 | 59 | 1011.7 |
| 20260509070013 | 57 | 204 | 0.0 | 5.0 | 0.00 | 0.00 | 0.00 | 59 | 1011.6 |
| 20260509064510 | 57 | 216 | 0.0 | 0.0 | 0.00 | 0.00 | 0.00 | 58 | 1011.7 |
| 20260509063025 | 57 | 190 | 0.0 | 1.0 | 0.00 | 0.00 | 0.00 | 58 | 1011.8 |
| 20260509061522 | 57 | 207 | 0.0 | 4.0 | 0.00 | 0.00 | 0.00 | 58 | 1011.9 |
| 20260509060019 | 57 | 227 | 0.0 | 0.0 | 0.00 | 0.00 | 0.00 | 58 | 1012.1 |
| 20260509054517 | 57 | 193 | 0.0 | 0.0 | 0.00 | 0.00 | 0.00 | 58 | 1012.1 |
| 20260509053018 | 58 | 210 | 0.0 | 0.0 | 0.00 | 0.00 | 0.00 | 56 | 1012.1 |
| 20260509051516 | 58 | 253 | 0.0 | 0.0 | 0.00 | 0.00 | 0.00 | 55 | 1012.1 |
| 20260509050013 | 59 | 209 | 1.0 | 10.0 | 0.00 | 0.00 | 0.00 | 53 | 1012.0 |
| 20260509044509 | 60 | 192 | 0.0 | 4.0 | 0.00 | 0.00 | 0.00 | 53 | 1012.0 |
| 20260509043026 | 60 | 215 | 0.0 | 1.0 | 0.00 | 0.00 | 0.00 | 51 | 1011.9 |
| 20260509041512 | 60 | 263 | 0.0 | 8.0 | 0.00 | 0.00 | 0.00 | 51 | 1012.0 |
| 20260509040035 | 60 | 238 | 0.0 | 0.0 | 0.00 | 0.00 | 0.00 | 50 | 1012.0 |
| 20260509034533 | 60 | 112 | 0.0 | 0.0 | 0.00 | 0.00 | 0.00 | 50 | 1012.1 |
| 20260509033031 | 61 | 192 | 0.0 | 1.0 | 0.00 | 0.00 | 0.00 | 50 | 1012.2 |
| 20260509031524 | 61 | 196 | 0.0 | 0.0 | 0.00 | 0.00 | 0.00 | 51 | 1012.3 |
| 20260509030013 | 60 | 241 | 0.0 | 5.0 | 0.00 | 0.00 | 0.00 | 51 | 1012.4 |
| 20260509024510 | 60 | 255 | 0.0 | 0.0 | 0.00 | 0.00 | 0.00 | 52 | 1012.4 |
| 20260509023028 | 60 | 205 | 0.0 | 0.0 | 0.00 | 0.00 | 0.00 | 52 | 1012.3 |
| 20260509021520 | 60 | 191 | 0.0 | 0.0 | 0.00 | 0.00 | 0.00 | 52 | 1012.2 |
| 20260509020018 | 61 | 208 | 0.0 | 0.0 | 0.00 | 0.00 | 0.00 | 51 | 1012.1 |
| 20260509014515 | 61 | 198 | 0.0 | 0.0 | 0.00 | 0.00 | 0.00 | 51 | 1012.0 |
| 20260509013014 | 61 | 203 | 0.0 | 0.0 | 0.00 | 0.00 | 0.00 | 51 | 1012.1 |
| 20260509011533 | 61 | 213 | 0.0 | 0.0 | 0.00 | 0.00 | 0.00 | 50 | 1012.1 |
| 20260509010028 | 62 | 194 | 0.0 | 0.0 | 0.00 | 0.00 | 0.00 | 50 | 1012.0 |
| 20260509004545 | 63 | 183 | 0.0 | 0.0 | 0.00 | 0.00 | 0.00 | 48 | 1011.9 |
| 20260509003044 | 64 | 196 | 0.0 | 0.0 | 0.00 | 0.00 | 0.00 | 47 | 1011.8 |
| 20260509001521 | 65 | 203 | 0.0 | 0.0 | 0.00 | 0.00 | 0.00 | 45 | 1011.6 |
| 20260509000019 | 66 | 231 | 0.0 | 0.0 | 0.00 | 0.00 | 0.00 | 44 | 1011.4 |
| 20260508234538 | 67 | 197 | 0.0 | 0.0 | 0.00 | 0.00 | 0.00 | 43 | 1011.3 |
| 20260508233013 | 67 | 192 | 0.0 | 0.0 | 0.00 | 0.00 | 0.00 | 43 | 1011.3 |
| 20260508231511 | 68 | 183 | 0.0 | 0.0 | 0.00 | 0.00 | 0.00 | 43 | 1011.2 |
| 20260508230028 | 68 | 190 | 0.0 | 0.0 | 0.00 | 0.00 | 0.00 | 41 | 1011.1 |
| 20260508224522 | 69 | 200 | 0.0 | 0.0 | 0.00 | 0.00 | 0.00 | 42 | 1011.0 |
| 20260508223021 | 70 | 198 | 0.0 | 0.0 | 0.00 | 0.00 | 0.00 | 41 | 1011.0 |
| 20260508221518 | 72 | 121 | 0.0 | 4.0 | 0.00 | 0.00 | 0.00 | 37 | 1011.0 |
| 20260508220017 | 73 | 172 | 0.0 | 1.0 | 0.00 | 0.00 | 0.00 | 36 | 1010.9 |
| 20260508214512 | 71 | 300 | 0.0 | 1.0 | 0.00 | 0.00 | 0.00 | 40 | 1011.1 |
| 20260508213010 | 70 | 197 | 0.0 | 0.0 | 0.00 | 0.00 | 0.00 | 37 | 1011.2 |
| 20260508211533 | 72 | 183 | 1.0 | 5.0 | 0.00 | 0.00 | 0.00 | 33 | 1011.2 |
| 20260508210026 | 75 | 225 | 1.0 | 9.0 | 0.00 | 0.00 | 0.00 | 32 | 1011.0 |
| 20260508204522 | 75 | 265 | 0.0 | 10.0 | 0.00 | 0.00 | 0.00 | 34 | 1011.2 |
| 20260508203015 | 76 | 270 | 0.0 | 6.0 | 0.00 | 0.00 | 0.00 | 34 | 1011.3 |
| 20260508201510 | 75 | 147 | 0.0 | 0.0 | 0.00 | 0.00 | 0.00 | 33 | 1011.4 |
| 20260508200048 | 75 | 220 | 2.0 | 7.0 | 0.00 | 0.00 | 0.00 | 33 | 1011.7 |
| 20260508194525 | 74 | 265 | 1.0 | 6.0 | 0.00 | 0.00 | 0.00 | 34 | 1011.9 |
| 20260508193022 | 73 | 221 | 0.0 | 0.0 | 0.00 | 0.00 | 0.00 | 36 | 1012.1 |
| 20260508191521 | 74 | 191 | 1.0 | 12.0 | 0.00 | 0.00 | 0.00 | 35 | 1012.3 |
| 20260508190014 | 74 | 244 | 0.0 | 0.0 | 0.00 | 0.00 | 0.00 | 39 | 1012.6 |
| 20260508184510 | 73 | 255 | 0.0 | 12.0 | 0.00 | 0.00 | 0.00 | 34 | 1012.9 |
| 20260508183025 | 72 | 295 | 1.0 | 9.0 | 0.00 | 0.00 | 0.00 | 37 | 1013.1 |
| 20260508181520 | 72 | 196 | 0.0 | 3.0 | 0.00 | 0.00 | 0.00 | 35 | 1013.2 |
| 20260508180017 | 72 | 179 | 0.0 | 6.0 | 0.00 | 0.01 | 0.00 | 36 | 1013.4 |
| 20260508174535 | 72 | 198 | 0.0 | 0.0 | 0.00 | 0.01 | 0.00 | 39 | 1013.5 |
| 20260508173028 | 71 | 208 | 0.0 | 8.0 | 0.00 | 0.01 | 0.00 | 40 | 1013.6 |
| 20260508171525 | 70 | 277 | 0.0 | 6.0 | 0.00 | 0.01 | 0.00 | 41 | 1013.8 |